Location: Ca�n Batista
(41.4099°N, 1.7752°E)
Time: 14:00:55
(UTC+00:00)

Okean-O - Pass Details

Date: 03 March 2021
Orbit: 639 x 640 km, 98.2° (Epoch: 22 April)

Event Time Altitude Azimuth Distance (km) Brightness Sun altitude
Rises 18:20:18 0° 155° (SSE) 2,931 5.8 -7.2°
Reaches altitude 10° 18:22:31 10° 151° (SSE) 2,026 4.9 -7.6°
Maximum altitude 18:26:51 57° 73° (ENE) 755 2.7 -8.4°
Drops below altitude 10° 18:31:12 10° 355° (N) 2,042 5.3 -9.3°
Sets 18:33:27 0° 352° (N) 2,955 6.2 -9.7°
